User: anonymous
Location: NJAA Observatory
(40.6819°N, 74.8979°W)
Time: 07:56:16
(UTC-04:00)
Language:

Cosmos 2263 Rocket - Orbit

View from above orbital plane
View from above orbital plane
View from above satellite
View from above satellite

Ground track
Ground track

The orbit data is extracted from the following two-line orbital elements,

1 22803U 93059B   14262.11350294  .00000055  00000-0  51423-4 0  3657
2 22803 070.9911 200.9045 0015105 113.8895 246.3813 14.16671679 86369
Epoch (UTC): 19 September 2014 02:43:26
Eccentricity: 0.0015105
inclination: 70.9911°
perigee height: 826 km
apogee height: 847 km
right ascension of ascending node: 200.9045°
argument of perigee: 113.8895°
revolutions per day: 14.16671679
mean anomaly at epoch: 246.3813°
orbit number at epoch: 8636

The dashed part of the orbit path shows where the satellite is in the earth's shadow,  

DLR